Temp
-1 -2 -2 -1 -1 -0 -0 1 -0 -1 1 -1 -1 0 0 2 3 3 4 5 4 4 4 5 6 6 6 6 6 6 6 6 6 7 7 7 8 8 8 8 7 8 8 7
-2 -2 -2 -1 -1 -0 -0 -0 0 -0 0 -1 1 0 -0 1 2 3 3 5 5 4 4 4 4 5 5 6 6 6 6 6 6 7 7 7 7 7 7 6 6 7 7 7
-2 -2 -2 -1 -1 -1 -1 -1 0 0 0 -1 1 1 2 2 2 3 3 4 5 5 5 4 5 5 5 5 6 6 6 6 6 6 6 6 6 6 6 6 7 7 6 6
-2 -1 -2 -1 -1 -1 -1 -1 -0 -0 -0 -1 -0 1 3 3 3 3 4 4 4 5 5 5 5 5 5 5 5 6 6 6 6 6 6 6 6 6 6 6 5 6 6 6
-2 -2 -1 -1 -1 -1 -1 -0 -0 -0 -0 -0 -1 1 3 3 4 5 5 4 5 5 5 6 6 5 5 5 5 5 5 6 5 5 5 5 6 6 5 5 5 5 5 5
-3 -2 -2 -2 -2 -1 -1 -1 -0 -0 -1 -2 0 -0 1 4 5 4 4 3 4 5 5 5 5 4 4 4 5 5 5 5 5 5 5 5 5 5 5 5 5 5 5 4
-3 -2 -2 -1 -2 -2 -2 -1 -2 -2 -2 -3 -0 -1 3 3 3 4 3 3 4 5 5 4 4 4 4 4 4 4 5 5 5 5 5 5 5 5 5 5 4 5 4 4
-3 -2 -2 -2 -1 -2 -2 -1 -2 -3 -3 -3 -2 -1 1 3 3 3 3 3 4 4 5 4 4 3 4 3 3 3 3 4 4 4 4 4 4 4 4 4 4 4 4 4
-4 -3 -3 -2 -2 -2 -2 -2 -2 -3 -3 -3 -1 0 1 2 3 3 3 3 4 4 4 4 3 3 3 2 3 3 3 3 3 3 3 3 4 4 4 4 4 4 3 3
-4 -4 -3 -3 -3 -3 -3 -2 -3 -3 -3 -3 -2 -1 2 3 3 3 4 3 3 4 4 4 3 3 2 2 2 2 2 3 3 3 3 3 3 2 2 3 3 3 2 2
-4 -5 -4 -3 -3 -3 -3 -3 -2 -3 -2 -5 -3 -0 2 2 2 2 2 3 3 3 3 3 3 3 3 2 2 2 2 2 3 2 2 2 2 2 2 2 2 2 2 2
-4 -5 -5 -4 -3 -3 -4 -3 -2 -2 -3 -2 -2 -1 1 2 2 2 2 2 2 2 2 2 3 3 3 3 2 2 2 2 2 2 2 2 1 1 1 1 1 1 1 1
-5 -5 -5 -4 -4 -4 -4 -4 -4 -3 -2 -2 -3 -1 1 1 2 2 2 1 1 1 1 2 1 2 2 2 1 1 1 1 1 2 2 2 1 1 1 1 1 0 -1 -0
-6 -6 -6 -6 -5 -6 -5 -4 -4 -4 -3 -3 -2 -1 0 1 1 1 1 1 1 1 1 1 1 1 1 1 1 1 1 1 2 2 1 1 0 0 0 0 0 -0 -0 -0
-6 -7 -7 -6 -5 -6 -5 -4 -4 -3 -3 -3 -2 -2 -1 -0 0 0 -0 0 0 0 0 0 0 1 1 1 1 1 1 1 1 1 1 1 0 -0 -0 -0 -0 -1 -1 -1
-7 -8 -8 -7 -5 -5 -4 -4 -4 -4 -3 -4 -3 -2 -2 -1 -1 -0 -1 -1 -1 -1 -1 -0 0 0 0 0 1 1 1 1 1 1 1 1 1 0 0 -0 -0 -1 -1 -1
-8 -8 -8 -7 -6 -4 -4 -3 -3 -3 -3 -3 -3 -2 -2 -3 -2 -1 -1 -2 -2 -1 -1 -1 -0 0 1 0 1 1 1 1 1 1 1 2 1 1 0 -1 -1 -1 -2 -1
-8 -8 -8 -6 -6 -6 -4 -4 -4 -3 -3 -3 -3 -2 -3 -3 -3 -3 -3 -3 -3 -2 -2 -1 -1 -0 0 0 0 0 0 0 1 1 1 1 1 1 0 -0 -1 -2 -2 -2
-8 -8 -7 -8 -7 -4 -4 -4 -4 -4 -4 -4 -3 -3 -3 -3 -4 -3 -3 -3 -3 -2 -2 -1 -1 -0 0 0 0 0 0 0 0 1 0 0 0 -0 -1 -1 -2 -2 -2 -2
-7 -8 -8 -8 -8 -6 -4 -4 -4 -3 -4 -4 -3 -3 -2 -3 -3 -3 -2 -2 -2 -2 -1 -1 -1 -0 0 -0 0 -0 -0 -0 -0 -0 -1 -1 -1 -1 -2 -2 -2 -2 -2 -2
-7 -7 -8 -8 -8 -4 -4 -4 -4 -4 -4 -4 -4 -4 -4 -3 -3 -3 -3 -3 -2 -2 -2 -2 -1 -1 -1 -0 -1 -1 -1 -1 -2 -2 -2 -2 -2 -2 -2 -2 -3 -3 -3 -2
-6 -7 -8 -7 -8 -7 -5 -4 -5 -4 -5 -5 -5 -4 -4 -4 -4 -3 -3 -3 -3 -3 -2 -2 -1 -1 -1 -0 -1 -1 -2 -2 -3 -2 -2 -2 -2 -2 -3 -3 -3 -3 -3 -3
-6 -6 -6 -6 -5 -5 -5 -5 -5 -5 -5 -5 -4 -4 -4 -4 -5 -5 -4 -4 -4 -4 -3 -3 -2 -2 -1 -1 -1 -2 -2 -3 -3 -2 -2 -2 -3 -3 -3 -3 -3 -3 -3 -3
-6 -6 -6 -6 -5 -5 -5 -5 -5 -5 -5 -5 -5 -5 -5 -4 -4 -4 -4 -4 -4 -4 -4 -3 -3 -3 -2 -2 -2 -2 -3 -3 -3 -3 -3 -3 -3 -3 -3 -4 -3 -3 -3 -3
-5 -5 -5 -5 -6 -6 -6 -7 -7 -6 -6 -6 -6 -5 -5 -5 -5 -5 -5 -5 -5 -4 -4 -4 -4 -3 -3 -3 -3 -3 -3 -3 -3 -3 -3 -4 -4 -4 -4 -4 -4 -4 -3 -3
-4 -4 -5 -5 -6 -6 -7 -8 -8 -8 -8 -7 -6 -6 -5 -5 -5 -5 -5 -5 -5 -5 -4 -4 -4 -4 -4 -4 -4 -4 -4 -4 -4 -3 -3 -4 -4 -4 -4 -4 -5 -5 -5 -5
Height
3041 3046 3048 3048 3048 3049 3052 3055 3058 3064 3064 3068 3068 3075 3075 3080 3084 3087 3090 3092 3097 3104 3109 3112 3116 3121 3124 3127 3131 3136 3139 3142 3144 3145 3150 3154 3157 3159 3160 3162 3164 3166 3168 3169
3047 3046 3047 3048 3048 3050 3051 3056 3059 3063 3066 3073 3071 3074 3072 3077 3080 3084 3087 3089 3092 3097 3104 3109 3113 3116 3119 3123 3126 3129 3134 3138 3141 3144 3146 3148 3151 3152 3154 3157 3159 3161 3162 3163
3048 3049 3048 3050 3053 3053 3051 3054 3056 3060 3064 3069 3068 3068 3072 3073 3078 3082 3083 3087 3089 3092 3099 3104 3109 3113 3116 3119 3121 3125 3129 3133 3136 3139 3142 3142 3145 3148 3151 3153 3155 3156 3157 3157
3051 3051 3052 3053 3056 3057 3057 3058 3057 3060 3061 3064 3066 3067 3065 3069 3073 3079 3080 3082 3086 3089 3093 3097 3102 3107 3112 3116 3120 3122 3124 3128 3130 3132 3136 3139 3142 3144 3147 3148 3149 3150 3150 3152
3049 3048 3050 3052 3054 3056 3057 3056 3059 3062 3064 3065 3066 3069 3061 3065 3065 3067 3071 3074 3079 3084 3088 3092 3096 3101 3106 3111 3114 3118 3121 3124 3125 3128 3131 3134 3137 3139 3140 3142 3143 3145 3145 3146
3048 3048 3049 3050 3052 3054 3056 3058 3058 3059 3061 3063 3062 3067 3058 3062 3062 3066 3067 3071 3075 3080 3083 3088 3092 3095 3099 3102 3107 3111 3115 3118 3121 3125 3127 3128 3131 3134 3135 3136 3138 3139 3140 3140
3046 3045 3046 3048 3050 3052 3055 3057 3059 3061 3060 3059 3057 3061 3051 3057 3061 3062 3064 3067 3070 3073 3076 3081 3085 3090 3094 3096 3100 3104 3108 3112 3115 3118 3120 3122 3124 3127 3128 3130 3131 3134 3134 3135
3043 3043 3043 3044 3046 3049 3051 3054 3056 3058 3059 3058 3058 3055 3049 3054 3058 3060 3061 3064 3066 3069 3071 3075 3080 3084 3087 3090 3093 3097 3101 3104 3107 3110 3113 3115 3117 3120 3121 3122 3124 3126 3127 3128
3041 3040 3039 3041 3043 3048 3048 3050 3054 3053 3056 3054 3050 3048 3049 3051 3054 3056 3058 3060 3064 3066 3067 3071 3074 3077 3081 3084 3087 3091 3094 3097 3100 3104 3106 3107 3110 3112 3114 3116 3117 3119 3120 3120
3040 3039 3038 3039 3041 3043 3044 3048 3051 3052 3053 3053 3048 3048 3046 3047 3050 3052 3054 3056 3059 3062 3065 3068 3070 3073 3077 3080 3083 3085 3087 3090 3093 3095 3098 3100 3102 3104 3106 3108 3109 3111 3112 3113
3038 3039 3038 3037 3036 3038 3041 3042 3045 3048 3049 3048 3048 3042 3041 3043 3046 3047 3050 3053 3056 3059 3061 3064 3066 3070 3073 3075 3078 3080 3082 3084 3086 3088 3090 3092 3095 3097 3099 3100 3103 3104 3106 3107
3037 3034 3032 3033 3034 3035 3036 3038 3041 3042 3045 3045 3045 3040 3039 3040 3042 3045 3047 3049 3052 3055 3057 3059 3061 3065 3067 3070 3072 3075 3077 3079 3080 3081 3084 3085 3088 3091 3094 3096 3097 3099 3101 3101
3034 3032 3031 3028 3028 3031 3031 3033 3037 3039 3041 3040 3044 3039 3040 3040 3041 3043 3044 3047 3050 3053 3054 3055 3057 3059 3061 3064 3067 3070 3071 3073 3074 3076 3077 3079 3081 3085 3088 3091 3092 3093 3095 3095
3031 3029 3031 3030 3029 3030 3028 3028 3032 3035 3035 3032 3031 3036 3040 3041 3042 3044 3044 3045 3049 3050 3052 3054 3056 3057 3059 3061 3062 3064 3065 3066 3068 3070 3071 3073 3076 3079 3082 3085 3087 3086 3087 3086
3025 3022 3024 3024 3026 3026 3025 3025 3024 3023 3026 3030 3028 3034 3039 3041 3042 3041 3042 3044 3046 3048 3050 3052 3054 3056 3056 3058 3059 3060 3061 3062 3063 3064 3066 3068 3070 3073 3075 3078 3079 3080 3080 3078
3020 3020 3020 3018 3021 3022 3021 3021 3019 3019 3022 3024 3026 3027 3033 3036 3037 3037 3039 3040 3041 3043 3044 3046 3049 3051 3054 3054 3055 3055 3057 3058 3058 3059 3060 3061 3062 3065 3068 3070 3072 3072 3072 3073
3018 3019 3019 3017 3018 3018 3018 3014 3015 3014 3016 3019 3016 3022 3028 3028 3029 3030 3033 3035 3036 3037 3038 3041 3043 3045 3046 3048 3049 3049 3049 3050 3052 3053 3054 3056 3057 3059 3061 3063 3064 3065 3066 3067
3017 3018 3019 3017 3016 3018 3014 3012 3012 3009 3012 3017 3018 3020 3021 3023 3025 3027 3029 3030 3032 3032 3033 3034 3036 3038 3039 3040 3041 3042 3041 3041 3043 3045 3047 3049 3051 3053 3055 3057 3058 3059 3060 3060
3017 3017 3018 3017 3015 3014 3014 3012 3011 3010 3014 3015 3015 3014 3013 3016 3019 3020 3023 3024 3025 3026 3027 3028 3030 3031 3031 3032 3032 3032 3033 3035 3036 3038 3040 3043 3044 3047 3050 3051 3052 3054 3054 3055
3018 3018 3019 3019 3018 3015 3012 3011 3009 3011 3012 3012 3011 3010 3010 3011 3012 3016 3017 3019 3019 3020 3021 3021 3022 3022 3023 3023 3023 3024 3026 3027 3030 3032 3035 3036 3038 3041 3044 3045 3047 3048 3049 3049
3016 3017 3017 3018 3016 3010 3009 3010 3010 3011 3015 3010 3010 3010 3011 3011 3012 3013 3013 3014 3014 3014 3014 3014 3014 3015 3015 3015 3016 3018 3019 3022 3025 3026 3028 3031 3034 3036 3038 3040 3042 3042 3043 3042
3015 3015 3015 3016 3015 3012 3010 3010 3012 3011 3009 3009 3009 3009 3009 3010 3010 3010 3010 3010 3010 3009 3009 3009 3008 3008 3008 3009 3010 3011 3014 3016 3018 3020 3023 3026 3029 3031 3033 3035 3036 3037 3037 3036
3014 3014 3015 3014 3010 3009 3009 3008 3008 3008 3008 3008 3008 3008 3008 3007 3008 3007 3007 3007 3006 3005 3004 3003 3003 3002 3002 3003 3004 3006 3007 3009 3012 3015 3018 3021 3023 3026 3027 3029 3031 3031 3031 3030
3009 3010 3009 3010 3007 3006 3005 3004 3003 3002 3002 3003 3003 3003 3004 3006 3006 3005 3004 3004 3003 3002 3001 3000 2999 2998 2998 2998 2999 3001 3003 3005 3007 3010 3012 3015 3017 3020 3022 3023 3024 3024 3024 3023
3008 3007 3005 3003 3003 3001 2999 2998 2998 2997 2996 2997 2997 2998 2999 3001 3003 3002 3002 3001 3000 2999 2998 2997 2996 2996 2996 2995 2997 2998 3000 3002 3004 3006 3007 3010 3012 3014 3016 3017 3018 3017 3016 3016
3004 3004 3003 3000 2998 2995 2994 2991 2990 2989 2989 2988 2991 2993 2995 2996 2998 2998 2998 2997 2997 2997 2996 2996 2995 2995 2994 2994 2995 2997 2998 3000 3002 3003 3004 3006 3008 3009 3010 3010 3010 3010 3009 3009
Wind_Speed
12 12 15 13 5 5 2 8 12 22 17 15 20 22 20 29 29 31 33 31 27 22 16 20 28 28 33 34 35 35 32 27 25 26 27 27 26 30 33 30 32 32 30 30
10 10 10 11 7 6 7 7 12 11 10 9 22 17 14 29 34 29 28 36 32 25 21 20 18 23 30 30 27 26 25 24 23 24 23 24 24 24 25 26 26 26 27 28
10 9 12 12 11 8 7 10 11 7 13 12 8 13 18 17 33 32 30 31 36 30 24 22 22 21 20 22 27 27 23 24 23 24 25 24 24 26 26 27 26 25 26 26
11 14 13 13 11 14 7 6 10 11 12 7 12 4 15 20 20 36 36 34 32 35 30 27 26 26 24 22 22 23 28 27 27 27 26 25 25 26 24 25 26 25 25 26
7 13 16 15 14 13 9 4 9 10 16 10 17 8 19 16 23 23 38 40 44 38 35 34 33 32 31 28 26 25 26 25 26 25 26 25 25 24 24 25 26 27 28 28
10 12 13 16 18 14 9 9 8 13 15 6 17 18 10 21 24 23 18 32 32 36 31 33 32 31 30 32 32 31 30 30 29 26 26 26 25 26 26 26 28 29 31 31
13 15 16 14 18 16 14 12 2 2 4 4 15 16 21 16 17 17 18 23 27 29 31 34 31 31 31 32 33 33 34 34 32 32 32 32 30 30 30 29 29 31 30 31
5 7 20 18 22 19 22 20 7 6 3 2 6 11 19 19 21 12 22 21 21 23 29 33 32 32 30 28 31 33 34 31 32 33 33 32 34 33 33 31 32 33 32 32
6 6 7 17 18 24 18 22 21 4 2 1 6 12 12 14 14 15 19 21 22 20 19 23 26 29 28 26 30 35 36 35 33 32 31 32 33 32 30 29 30 33 33 34
5 8 12 10 15 24 21 19 9 7 4 4 5 9 14 6 17 27 19 23 20 20 21 22 20 22 22 22 23 25 29 35 37 34 36 34 33 33 34 32 31 30 32 33
13 16 7 10 17 25 26 21 13 7 6 4 2 6 13 16 14 23 20 16 17 17 18 20 19 18 18 24 26 25 25 26 28 31 32 31 28 26 26 25 25 28 32 35
10 12 9 17 17 21 29 26 25 9 6 11 2 8 6 13 20 13 13 16 14 14 16 20 23 25 24 22 26 30 26 25 24 24 25 24 23 20 20 23 25 26 29 34
5 6 5 8 10 23 16 30 29 29 15 18 7 5 12 4 10 12 12 13 12 11 13 12 14 17 21 19 19 22 22 22 22 23 27 26 25 24 24 23 24 22 27 36
18 20 18 12 15 17 12 24 26 31 18 23 33 22 10 8 7 10 13 14 12 11 8 6 7 10 12 12 11 12 14 18 21 23 25 27 27 29 29 29 32 35 34 31
17 16 18 23 16 17 20 15 13 31 37 21 32 29 29 23 16 15 15 17 15 13 13 13 13 13 13 13 14 13 11 12 14 17 21 26 29 30 30 30 30 28 29 26
13 8 8 18 18 20 23 19 17 18 29 38 29 28 24 19 25 23 20 15 16 23 23 22 19 17 16 19 20 24 25 22 18 15 17 20 24 28 29 29 28 29 25 24
6 4 4 3 2 7 9 10 13 20 25 22 32 38 29 29 33 30 27 25 26 29 28 28 29 28 27 26 25 25 27 31 29 25 20 21 22 25 28 29 27 25 24 24
3 4 5 5 2 2 3 5 9 5 13 20 20 18 20 20 20 25 32 36 28 24 24 24 25 29 29 27 27 25 24 26 28 30 28 25 25 26 26 25 24 23 22 21
6 3 1 3 6 8 4 6 4 7 6 3 9 12 17 15 20 22 21 21 22 26 24 24 29 28 26 26 26 26 26 25 27 28 27 26 26 24 23 22 22 21 20 21
5 5 1 1 3 2 3 3 1 4 3 2 3 8 5 13 20 14 17 20 21 22 23 23 25 24 24 23 25 23 22 23 23 24 23 24 23 22 22 22 20 19 20 21
6 6 7 7 5 7 9 6 2 4 2 2 2 7 6 1 5 8 11 12 13 14 16 17 18 19 20 22 22 21 22 21 20 23 24 24 22 21 21 20 19 20 20 22
3 3 5 4 5 7 6 8 7 5 6 6 3 4 4 5 7 9 12 13 15 16 17 18 19 20 20 19 20 19 18 18 21 24 26 25 23 22 20 21 21 21 22 23
5 8 4 6 5 10 11 13 14 13 15 16 12 8 9 6 6 8 9 11 12 14 14 14 15 15 16 17 18 19 20 22 23 24 24 25 26 24 24 24 22 22 23 25
9 12 13 12 10 15 15 18 21 20 18 22 22 15 10 10 8 8 10 11 12 11 11 11 10 10 11 13 17 19 23 24 22 22 23 26 26 27 27 22 23 24 25 27
11 11 12 17 17 20 23 23 23 25 26 23 20 18 14 13 13 14 12 11 9 10 9 8 8 6 5 6 11 15 19 19 20 18 18 20 24 23 21 24 25 27 29 28
12 12 14 21 23 25 25 26 25 25 25 23 26 19 19 16 16 18 17 12 8 6 4 4 5 6 4 5 8 10 12 12 14 18 20 20 20 23 25 27 28 29 30 29
Wind_Direction
156 136 145 157 173 195 187 215 222 228 261 284 257 222 197 187 190 195 195 190 187 189 194 198 207 208 215 223 225 230 231 227 231 236 238 233 235 244 254 260 266 263 261 262
167 178 161 172 166 172 160 167 176 182 202 234 260 257 258 212 196 204 209 206 201 199 205 212 209 203 208 214 220 225 226 222 225 232 237 240 242 250 256 262 264 268 271 271
202 205 211 202 205 210 183 211 194 196 196 195 221 256 245 251 221 216 206 217 218 212 216 218 222 226 225 223 221 223 227 231 233 235 237 239 244 249 254 262 268 273 274 272
229 225 218 216 213 213 215 231 214 226 205 206 200 271 252 241 226 226 239 224 221 220 223 229 229 232 233 233 234 226 224 230 234 241 242 243 245 251 256 259 264 266 270 269
226 221 225 221 218 207 217 235 212 202 219 204 200 226 246 244 228 224 223 221 221 222 224 225 233 236 235 230 232 235 234 233 233 234 240 244 251 255 255 262 266 264 261 262
215 210 211 218 216 209 206 201 191 202 211 230 227 220 205 230 236 248 237 222 224 229 233 243 239 237 240 238 236 234 236 236 239 240 242 245 249 255 257 259 263 262 261 261
234 222 217 221 215 215 206 192 133 226 212 223 211 214 228 204 224 233 231 233 231 232 232 235 235 240 242 243 238 239 239 241 242 244 250 251 253 254 258 261 262 266 266 264
242 242 225 222 218 214 213 211 184 193 201 202 151 217 229 231 240 218 212 222 233 238 234 232 235 240 237 240 240 241 244 243 241 242 244 248 254 256 258 257 258 261 261 261
232 254 231 218 219 210 208 218 232 220 225 124 207 259 262 234 229 233 224 213 227 221 223 225 226 230 225 235 242 243 246 248 248 251 252 251 252 254 257 257 259 259 260 261
272 271 260 246 220 215 218 221 179 184 192 222 220 242 226 213 246 243 233 235 233 228 230 232 235 234 229 233 234 234 245 249 250 252 251 252 255 258 261 260 259 261 260 262
251 252 252 235 226 226 218 218 214 215 195 181 283 250 260 257 245 238 239 229 232 234 232 233 236 234 234 229 234 244 243 245 245 247 248 251 255 257 254 253 257 262 263 258
261 273 260 260 262 250 232 228 220 205 204 219 265 268 286 249 222 234 224 232 235 242 238 238 240 241 243 240 233 238 246 244 244 247 246 248 249 255 260 264 260 261 264 257
265 258 297 303 246 236 236 229 235 230 219 223 192 242 225 243 220 223 206 218 220 236 246 241 234 228 226 227 234 243 250 251 251 255 248 249 248 253 257 259 255 250 264 274
278 273 264 247 292 316 299 240 241 239 226 229 229 227 213 195 199 181 193 206 214 211 213 207 214 219 224 233 235 238 245 248 249 251 247 244 241 242 246 252 259 265 266 288
274 260 257 259 264 284 294 284 254 223 224 216 247 240 235 242 220 205 206 216 221 234 245 244 237 233 234 238 243 238 236 243 249 249 251 248 245 245 247 250 258 256 270 279
284 274 264 270 259 271 277 261 255 247 240 240 239 242 230 217 210 213 223 234 258 276 274 270 267 262 261 256 257 259 256 255 253 260 258 255 249 248 248 249 251 257 269 268
266 267 271 282 316 253 272 273 269 259 239 244 235 242 235 227 217 214 230 245 267 271 274 271 272 274 276 276 268 262 254 249 251 255 258 257 257 249 248 250 254 256 257 261
217 217 269 295 5 229 18 315 335 279 241 256 272 271 264 256 245 235 241 249 261 264 269 272 276 278 272 264 262 262 258 252 246 246 250 251 247 247 245 245 245 248 255 264
186 201 266 340 307 297 129 353 345 11 50 331 301 293 254 224 237 250 240 249 259 260 263 266 269 268 264 260 260 260 256 251 249 246 241 240 236 234 232 235 240 248 257 264
201 229 271 335 308 267 239 0 326 222 184 338 339 341 283 223 242 250 251 256 258 261 261 258 258 259 257 258 257 256 253 248 247 243 235 231 223 222 229 236 243 250 260 270
204 235 253 240 265 278 263 267 241 202 227 186 50 38 24 300 250 254 258 262 268 270 270 266 261 260 261 257 256 250 248 240 239 229 225 225 224 225 234 242 248 258 269 278
208 206 220 198 240 276 293 277 265 252 266 252 252 283 293 299 285 277 277 278 281 280 276 272 268 265 263 257 249 244 232 222 224 224 224 225 226 231 238 245 253 263 272 283
229 215 243 234 256 287 289 292 288 277 266 261 254 260 291 276 293 293 290 292 293 293 285 279 275 270 262 250 239 230 213 215 224 228 227 228 230 232 238 242 252 264 275 281
249 246 248 273 281 284 283 280 284 291 280 258 246 241 248 263 269 289 283 287 292 294 293 291 286 279 270 247 231 223 218 221 225 228 230 230 228 235 242 245 253 263 273 279
267 271 280 284 290 288 284 283 275 272 269 262 259 234 235 249 262 267 279 286 277 288 287 285 288 290 265 244 224 219 222 227 229 228 227 226 229 237 245 251 258 267 275 282
272 271 280 295 298 291 289 287 284 274 265 262 248 245 240 248 255 265 263 260 263 278 278 282 286 287 267 230 218 221 227 224 224 227 229 233 240 243 249 257 267 274 278 279